Location: Unspecified
(48.5670°N, 0.0000°E)
Time: 19:33:12
(UTC+00:00)

Transit 4A - Pass Details

Date: 31 August 2019
Orbit: 865 x 979 km, 66.8° (Epoch: 22 September)

Event Time Altitude Azimuth Distance (km) Brightness Sun altitude
Rises 19:18:13 0° 282° (WNW) 3,680 13.4 -6.1°
Reaches altitude 10° 19:21:48 10° 301° (WNW) 2,726 12.0 -6.7°
Maximum altitude 19:25:56 18° 342° (NNW) 2,212 10.5 -7.3°
Drops below altitude 10° 19:30:01 10° 23° (NNE) 2,695 10.3 -8.0°
Sets 19:33:33 0° 42° (NE) 3,621 10.8 -8.5°
